Overview Statistics Trail Chart Weather Telemetry Raw packets
 

This is the latest recevied weather packets stored in our database for station/object VK4CWL-13. If no packets are shown the sender has not sent any weather packets the latest 10 day(s).

<< 29 30 31 32 33 34 35 >>
Time Temp. Humidity Pressure Rain* Wind** Luminosity Snow
1788472706 18.33° C 57% 1023 hPa 0 mm - - -
1788472404 17.22° C 57% 1023 hPa 0 mm - - -
1788472101 16.67° C 58% 1022.9 hPa 0 mm - - -
1788471813 16.67° C 59% 1022.9 hPa 0 mm - - -
1788471497 15.56° C 60% 1022.7 hPa 0 mm - - -
1788471194 15.56° C 62% 1022.9 hPa 0 mm - - -
1788470892 15° C 62% 1022.8 hPa 0 mm - - -
1788470590 14.44° C 63% 1022.7 hPa 0 mm - - -
1788470288 13.89° C 65% 1022.7 hPa 0 mm - - -
1788469986 13.33° C 66% 1022.6 hPa 0 mm - - -
1788469683 12.78° C 67% 1022.6 hPa 0 mm - - -
1788469381 12.22° C 68% 1022.5 hPa 0 mm - - -
1788469078 12.22° C 68% 1022.6 hPa 0 mm - - -
1788468776 11.67° C 66% 1022.3 hPa 0 mm - - -
1788468474 11.67° C 66% 1022.2 hPa 0 mm - - -
1788468171 11.11° C 65% 1022.2 hPa 0 mm - - -
1788467869 11.11° C 64% 1022.1 hPa 0 mm - - -
1788467567 11.11° C 64% 1022 hPa 0 mm - - -
1788467265 11.11° C 64% 1022 hPa 0 mm - - -
1788466963 11.11° C 64% 1021.9 hPa 0 mm - - -
1788466660 11.11° C 64% 1021.8 hPa 0 mm - - -
1788466358 11.11° C 63% 1021.7 hPa 0 mm - - -
1788466056 11.67° C 63% 1021.6 hPa 0 mm - - -
1788465753 11.67° C 64% 1021.5 hPa 0 mm - - -
1788465451 11.67° C 65% 1021.6 hPa 0 mm - - -

* Rain since midnight (hover to see other rain measurements)
** Current wind speed in m/s (hover to see current wind gust speed)